Probability
39 48 45 48 65 90 94 94 94 94 94 94 94 90 87 87 77 81 81 74 77 71 81 71 77 74 74 84 65 71 71 61 61 55 61 52 42 42 42 45 42 23 26
39 61 61 61 81 90 94 97 94 94 94 94 90 87 87 81 77 77 77 71 68 68 65 81 74 74 87 81 81 77 77 68 68 68 55 42 39 42 29 35 32 29 35
45 61 65 61 74 94 97 94 94 94 94 90 90 90 90 87 77 77 77 68 68 68 71 74 81 77 84 81 81 81 77 68 74 74 65 52 29 29 39 26 26 26 29
39 48 68 71 77 90 97 94 97 94 94 94 90 87 84 81 77 77 77 71 68 68 71 74 74 81 81 81 74 81 81 74 74 74 71 65 58 35 23 32 23 26 26
35 58 65 81 74 81 90 94 97 94 94 90 90 90 87 84 81 74 71 71 71 61 61 65 74 71 74 81 77 81 77 74 74 68 68 58 58 52 32 23 23 23 23
32 48 65 77 77 74 84 87 94 94 97 94 94 94 90 84 77 71 71 71 68 68 68 68 71 71 71 74 77 74 74 74 68 71 71 61 55 52 32 26 16 23 13
39 48 61 71 74 77 84 87 97 94 94 94 94 94 84 77 77 74 68 71 71 71 71 58 68 65 68 68 68 77 68 61 61 61 68 58 55 45 35 29 16 19 13
39 52 68 71 74 74 84 90 97 97 90 94 94 94 84 77 74 74 71 71 71 68 65 61 61 61 58 58 65 65 61 68 68 52 52 52 52 42 39 32 16 13 10
39 48 52 58 65 74 84 90 90 94 87 84 84 81 81 77 71 71 71 68 68 65 61 58 58 61 58 61 61 61 61 61 58 52 55 48 39 32 39 39 26 10 6
45 52 52 55 55 65 81 84 87 90 87 84 81 74 77 74 68 65 61 61 65 61 58 55 48 55 55 55 61 55 48 48 52 52 45 45 35 35 39 39 23 26 6
48 45 61 61 65 71 74 84 87 84 87 84 81 77 74 71 68 65 61 61 65 61 58 55 52 52 55 55 58 42 42 32 32 32 26 23 35 32 26 23 26 26 19
45 48 55 55 61 71 65 74 77 77 77 81 81 77 74 68 65 61 58 58 58 58 55 55 52 45 45 48 35 32 29 26 26 26 32 23 19 26 26 23 23 19 13
42 42 45 68 74 74 74 74 77 74 71 77 77 77 71 68 65 61 61 58 61 58 55 52 45 39 39 35 32 29 26 23 23 19 19 19 19 16 16 26 16 16 10
58 52 68 77 81 77 77 81 74 74 71 65 68 74 74 68 68 68 65 65 65 58 55 48 45 39 35 32 29 26 23 23 19 16 23 16 10 16 19 16 16 13 10
58 81 81 84 81 77 81 74 71 77 71 65 65 71 71 68 68 68 65 65 58 55 52 48 45 42 32 23 23 23 19 19 19 13 16 16 10 6 6 6 6 3 3
61 77 84 87 84 84 81 81 71 74 74 71 68 71 71 68 68 68 65 58 58 55 52 48 45 35 26 10 6 10 16 19 19 13 16 16 6 6 3 3 3 3 3
68 77 77 84 87 81 81 77 71 74 74 71 71 71 71 65 65 65 58 55 55 52 52 45 32 23 13 6 6 6 10 13 16 13 13 16 10 6 6 3 3 3 3
77 81 77 71 81 81 81 71 71 71 68 68 58 58 58 58 58 58 52 55 48 48 48 35 32 26 10 6 6 6 10 16 16 13 13 16 16 6 10 6 3 3 3
71 74 71 68 68 74 71 68 65 65 68 68 61 61 61 61 58 52 45 48 48 52 52 35 32 29 10 6 6 3 10 16 16 13 10 10 10 3 3 3 6 6 3
71 74 68 65 68 71 71 68 65 65 65 65 68 61 58 55 52 48 48 48 52 48 45 32 32 26 13 6 6 0 10 16 16 16 10 6 6 3 3 3 3 3 3
74 77 77 71 68 68 68 65 61 58 58 61 65 61 55 52 48 45 48 45 45 39 39 29 32 29 23 6 6 0 10 10 13 13 13 10 3 3 0 0 3 3 3
65 71 77 74 65 65 71 65 58 55 55 61 61 61 58 48 48 52 42 39 42 42 39 29 29 26 26 3 6 0 6 6 10 10 10 6 0 0 0 0 0 0 0
65 65 71 68 61 68 71 68 68 61 58 55 58 55 52 52 52 45 39 39 42 39 35 29 29 26 19 6 6 0 0 0 6 6 6 6 0 0 0 0 0 0 0
68 65 61 55 61 65 65 65 65 61 55 48 48 52 55 52 48 42 39 39 39 39 35 26 26 29 23 16 6 6 0 0 0 3 3 3 0 0 0 0 0 0 0
68 65 61 65 58 65 65 65 65 58 52 45 48 45 45 39 42 35 29 29 32 26 23 32 29 19 19 10 3 3 3 6 6 0 0 0 0 0 0 0 3 3 0
58 68 65 65 55 55 55 58 58 58 52 45 52 48 42 35 29 23 16 13 10 6 0 3 6 3 3 0 0 0 0 0 0 0 0 0 0 0 0 0 0 0 0
Height
5913 5911 5910 5908 5907 5906 5905 5904 5903 5902 5901 5900 5898 5897 5897 5896 5896 5895 5894 5894 5894 5894 5893 5894 5893 5893 5893 5893 5893 5893 5893 5893 5893 5893 5892 5892 5892 5892 5891 5891 5890 5890 5889
5915 5913 5912 5910 5909 5908 5907 5906 5905 5904 5902 5901 5900 5900 5899 5898 5897 5897 5896 5896 5895 5895 5895 5895 5894 5894 5894 5894 5894 5894 5893 5893 5893 5892 5892 5891 5892 5890 5890 5889 5888 5887 5887
5916 5915 5913 5912 5910 5909 5908 5907 5906 5905 5904 5903 5902 5901 5900 5899 5899 5898 5898 5897 5897 5896 5896 5896 5895 5895 5895 5894 5894 5894 5893 5893 5892 5892 5891 5891 5890 5889 5888 5887 5886 5885 5885
5917 5916 5915 5913 5912 5911 5910 5909 5908 5907 5906 5904 5903 5902 5902 5901 5900 5900 5899 5898 5898 5897 5897 5897 5896 5896 5895 5895 5894 5894 5893 5892 5892 5891 5890 5890 5889 5888 5887 5886 5884 5883 5882
5918 5917 5916 5915 5913 5912 5911 5910 5909 5908 5907 5906 5905 5904 5903 5902 5902 5901 5900 5899 5899 5898 5898 5897 5897 5896 5896 5895 5894 5893 5893 5892 5891 5890 5889 5888 5887 5886 5885 5884 5882 5881 5880
5919 5918 5917 5915 5914 5914 5912 5911 5910 5909 5908 5907 5906 5905 5904 5903 5902 5902 5901 5900 5899 5899 5898 5898 5897 5896 5896 5895 5894 5893 5892 5891 5890 5889 5888 5886 5885 5884 5883 5882 5880 5879 5878
5919 5918 5917 5916 5915 5914 5913 5912 5911 5911 5909 5908 5907 5906 5905 5904 5903 5902 5902 5901 5900 5899 5898 5898 5897 5896 5895 5894 5893 5892 5891 5890 5889 5887 5886 5885 5883 5882 5880 5879 5878 5876 5875
5919 5918 5918 5917 5916 5915 5914 5913 5912 5911 5910 5909 5908 5907 5906 5905 5904 5903 5902 5902 5901 5900 5898 5898 5897 5896 5895 5894 5892 5891 5890 5888 5887 5886 5884 5883 5881 5879 5878 5877 5875 5873 5872
5918 5918 5917 5917 5916 5915 5914 5913 5912 5911 5911 5910 5908 5908 5907 5906 5905 5904 5903 5902 5901 5900 5899 5898 5897 5895 5894 5893 5891 5890 5888 5887 5885 5884 5883 5881 5879 5877 5876 5874 5873 5871 5869
5917 5917 5916 5916 5915 5915 5914 5913 5912 5911 5910 5910 5909 5908 5907 5906 5905 5904 5903 5902 5901 5900 5899 5897 5896 5895 5893 5892 5890 5888 5887 5885 5884 5882 5881 5879 5877 5875 5873 5872 5870 5868 5867
5915 5915 5915 5915 5914 5914 5913 5913 5912 5911 5910 5909 5909 5908 5907 5906 5905 5904 5903 5902 5901 5900 5898 5897 5895 5894 5892 5891 5889 5887 5885 5884 5882 5880 5879 5877 5875 5873 5871 5869 5867 5865 5863
5913 5913 5913 5913 5913 5912 5912 5911 5911 5910 5909 5908 5908 5907 5906 5905 5904 5903 5902 5901 5900 5899 5897 5896 5894 5893 5891 5889 5888 5886 5884 5882 5880 5878 5876 5874 5872 5870 5868 5866 5864 5862 5860
5910 5911 5911 5911 5911 5910 5910 5910 5910 5909 5908 5907 5907 5906 5905 5904 5903 5902 5901 5899 5898 5897 5896 5894 5893 5891 5889 5888 5886 5884 5882 5880 5878 5876 5874 5872 5870 5868 5866 5864 5861 5859 5857
5907 5908 5908 5908 5908 5908 5908 5908 5908 5907 5907 5906 5905 5904 5903 5902 5901 5900 5899 5898 5897 5896 5894 5893 5891 5889 5888 5885 5883 5881 5880 5878 5876 5874 5872 5869 5867 5865 5863 5861 5858 5856 5854
5904 5904 5905 5905 5905 5905 5906 5905 5905 5905 5905 5904 5903 5902 5901 5900 5899 5898 5897 5896 5895 5894 5892 5891 5889 5887 5885 5883 5881 5879 5877 5875 5873 5871 5869 5867 5864 5862 5859 5857 5855 5852 5850
5899 5901 5901 5902 5902 5903 5903 5903 5902 5902 5902 5901 5901 5900 5899 5898 5897 5896 5895 5894 5893 5891 5890 5889 5887 5885 5883 5881 5879 5877 5875 5872 5870 5868 5866 5863 5861 5858 5856 5853 5851 5848 5846
5894 5896 5897 5898 5899 5899 5900 5900 5899 5899 5899 5898 5898 5897 5896 5895 5894 5893 5892 5891 5890 5889 5887 5886 5884 5882 5880 5878 5876 5874 5871 5869 5867 5864 5862 5859 5857 5854 5851 5849 5846 5843 5841
5889 5891 5893 5893 5894 5895 5895 5896 5895 5895 5895 5895 5894 5894 5893 5892 5891 5890 5890 5888 5887 5886 5884 5882 5881 5879 5877 5875 5872 5870 5867 5865 5862 5860 5858 5855 5852 5849 5847 5844 5841 5838 5836
5884 5886 5887 5888 5889 5890 5890 5891 5891 5891 5891 5891 5890 5890 5889 5889 5888 5887 5886 5885 5883 5882 5880 5879 5876 5875 5873 5871 5868 5866 5863 5861 5858 5855 5853 5850 5847 5845 5842 5839 5836 5834 5831
5878 5880 5881 5882 5883 5884 5885 5885 5886 5886 5886 5886 5886 5885 5885 5884 5883 5882 5881 5880 5879 5877 5876 5874 5873 5871 5868 5866 5864 5861 5859 5856 5854 5851 5848 5845 5842 5840 5837 5834 5831 5829 5826
5872 5874 5875 5876 5877 5878 5878 5879 5880 5880 5880 5880 5880 5880 5879 5879 5878 5876 5875 5875 5874 5872 5871 5869 5868 5866 5864 5861 5859 5856 5854 5851 5848 5846 5843 5840 5837 5834 5832 5829 5826 5823 5821
5865 5866 5868 5869 5871 5871 5872 5872 5873 5874 5874 5874 5874 5874 5874 5873 5872 5871 5870 5869 5868 5867 5865 5864 5862 5860 5858 5856 5853 5850 5848 5845 5843 5840 5837 5834 5832 5829 5826 5823 5820 5817 5814
5857 5859 5861 5862 5863 5864 5865 5866 5867 5867 5867 5868 5868 5868 5867 5867 5866 5865 5864 5863 5862 5860 5859 5857 5855 5854 5852 5849 5847 5844 5842 5839 5836 5834 5831 5828 5826 5823 5820 5817 5814 5811 5808
5849 5851 5853 5854 5856 5857 5857 5859 5859 5860 5860 5861 5861 5861 5860 5859 5859 5858 5857 5856 5855 5854 5853 5851 5849 5847 5845 5843 5840 5838 5835 5833 5830 5827 5824 5821 5819 5816 5813 5810 5807 5804 5801
5841 5843 5845 5846 5848 5849 5850 5851 5851 5852 5852 5853 5853 5853 5853 5852 5851 5850 5850 5849 5848 5847 5846 5844 5842 5840 5838 5836 5834 5831 5828 5826 5823 5820 5817 5814 5811 5808 5805 5802 5799 5796 5793
5832 5834 5836 5838 5839 5840 5842 5842 5843 5843 5844 5844 5844 5845 5844 5844 5843 5842 5841 5840 5840 5839 5837 5836 5834 5832 5830 5828 5825 5823 5820 5818 5815 5812 5810 5807 5804 5801 5798 5795 5791 5789 5785
Wind_Speed
13 13 13 12 12 11 11 12 11 11 10 10 9 9 9 9 10 10 9 8 7 6 6 5 4 4 4 3 3 3 3 3 3 4 4 5 5 6 7 8 8 9 9
12 11 12 12 11 11 10 10 11 10 10 10 9 9 9 9 9 9 8 8 7 6 6 5 4 3 3 3 3 3 3 4 4 5 5 6 7 8 9 9 10 10 11
11 12 12 11 10 10 10 10 10 10 10 10 9 9 8 8 9 9 8 8 7 6 5 5 4 3 3 3 3 3 4 5 6 6 6 7 8 9 9 10 11 11 12
9 10 11 10 10 10 10 10 10 10 10 9 9 8 8 8 8 8 7 7 6 6 5 5 4 4 3 3 4 4 5 6 6 7 7 8 8 9 9 10 11 11 12
8 9 9 10 10 9 9 9 10 9 10 9 9 8 7 8 7 7 7 6 6 6 5 5 4 4 5 5 5 6 6 7 7 8 8 9 9 9 10 10 11 11 12
7 8 9 9 9 9 9 9 9 9 9 9 9 8 8 8 8 7 7 6 5 5 5 5 5 5 5 6 7 7 8 8 8 8 9 10 10 10 11 10 11 11 12
6 7 8 8 8 8 8 8 8 9 9 9 8 8 8 8 8 7 7 7 6 6 5 5 6 6 6 7 8 8 8 8 9 9 10 11 11 11 11 11 11 12 13
5 6 7 7 7 7 8 8 8 8 8 8 8 8 8 7 7 7 7 7 7 7 7 7 7 7 8 9 9 9 9 9 10 10 11 11 12 12 12 12 13 13 14
7 7 7 7 6 7 7 7 8 7 7 8 8 8 8 8 8 7 7 7 8 8 8 8 8 9 9 10 10 10 10 10 10 10 11 12 13 13 13 13 14 15 15
8 8 8 7 7 7 7 7 7 7 7 7 7 8 8 8 8 8 8 8 8 8 9 9 9 10 10 11 11 11 11 10 10 11 12 13 13 14 14 14 15 15 16
9 9 8 8 7 7 7 7 7 8 7 7 8 8 9 9 9 9 9 9 9 9 9 9 10 10 11 11 12 12 12 11 11 12 13 13 14 14 15 15 15 15 16
11 10 9 8 8 8 8 8 8 8 8 8 8 9 9 10 10 10 10 9 9 10 10 10 11 11 12 13 13 13 12 12 13 13 13 14 15 15 15 16 16 17 17
13 11 11 10 9 9 10 9 8 8 8 9 9 10 10 10 10 10 10 10 11 11 11 11 12 12 13 14 14 14 13 14 14 14 14 15 16 16 16 17 17 17 17
14 13 12 11 11 11 11 10 10 10 10 10 11 11 11 11 11 11 11 11 12 12 12 13 14 14 14 14 14 14 14 14 14 15 15 16 16 17 17 17 17 18 18
16 15 14 14 13 13 12 11 11 12 12 12 12 12 13 13 12 12 11 12 12 13 14 14 14 14 15 15 15 15 16 16 16 16 17 17 18 18 18 18 18 19 19
18 17 16 16 15 14 14 13 13 13 13 13 13 13 13 14 14 13 12 13 13 14 15 15 15 15 16 16 16 17 17 18 18 18 18 19 19 19 19 19 20 20 21
21 19 19 18 17 16 16 15 15 15 15 15 15 14 14 14 15 14 14 14 15 15 16 15 16 16 17 18 18 19 19 20 20 20 20 20 21 21 20 21 21 22 22
22 22 21 20 19 19 18 18 17 17 17 17 17 16 16 16 16 15 15 15 16 17 17 17 17 18 19 19 20 20 21 21 21 21 21 21 21 21 21 22 22 22 22
24 23 23 23 22 21 20 20 20 19 19 19 18 18 18 18 17 17 18 18 19 19 19 19 19 20 20 21 21 22 22 22 22 22 22 22 22 22 21 22 22 21 21
25 25 25 25 25 24 23 23 22 21 21 21 20 20 20 20 20 20 20 21 21 21 21 20 21 21 21 22 22 23 23 23 23 22 22 22 22 22 22 22 22 23 23
26 27 26 26 26 26 25 25 24 23 22 22 22 22 22 22 22 22 22 23 22 22 23 22 22 22 23 23 24 24 24 25 24 24 23 23 23 23 23 24 24 24 24
28 28 28 27 27 27 27 27 27 25 24 23 24 24 25 24 23 23 23 23 23 24 24 24 24 24 24 25 25 25 26 26 26 25 25 25 25 25 24 25 25 25 25
29 29 29 29 28 28 29 28 28 27 26 26 26 26 26 25 25 25 25 25 24 24 25 25 25 25 26 26 27 28 28 28 27 27 27 27 27 26 26 26 27 27 27
30 29 29 29 30 30 30 30 29 28 28 28 28 28 27 27 28 27 27 28 27 27 27 27 26 26 27 28 29 29 29 29 29 29 28 28 28 28 28 28 28 28 28
31 31 30 30 31 31 31 31 31 31 31 31 31 31 30 30 30 30 30 30 30 29 28 27 28 28 29 30 31 31 31 31 31 30 29 29 28 29 29 29 29 29 29
32 32 31 32 32 32 32 32 32 32 32 32 32 33 33 33 32 32 32 31 31 31 31 30 30 30 31 31 32 32 32 32 32 31 30 30 30 30 30 30 30 30 30
Wind_Direction
30 30 32 35 37 37 39 41 44 44 42 43 44 45 47 49 49 50 56 60 63 67 67 67 68 60 51 43 32 12 358 351 343 326 309 303 300 301 302 300 301 301 300
26 26 26 27 32 35 36 37 39 40 39 39 41 42 43 45 45 47 51 52 55 57 57 54 56 48 41 34 28 19 360 348 335 326 318 310 305 304 304 302 301 300 302
21 23 23 24 26 30 31 33 36 37 36 36 36 37 40 44 46 49 47 47 47 46 45 41 38 31 27 19 13 4 352 348 342 334 328 319 311 309 304 302 302 301 304
15 19 20 20 23 26 28 29 30 31 32 31 30 31 33 37 37 36 37 36 35 38 36 30 28 24 17 6 355 354 348 342 336 331 328 325 320 316 312 308 304 304 304
4 10 13 14 17 20 23 24 24 25 27 27 25 27 27 28 27 26 31 30 31 32 27 20 13 12 6 356 344 338 335 332 331 329 327 323 321 317 313 312 310 309 308
358 2 5 10 11 14 17 20 21 23 24 24 23 21 20 22 22 21 21 21 19 17 13 6 360 355 349 345 341 334 330 329 327 326 325 325 320 321 319 314 312 309 308
353 357 0 5 8 9 11 14 15 17 18 17 16 16 16 16 16 15 14 11 8 2 357 352 350 344 338 338 334 329 327 326 326 326 325 325 324 322 321 318 315 311 309
336 344 350 353 0 2 2 3 3 5 10 13 11 11 9 7 6 7 5 1 1 4 5 0 356 350 343 339 337 332 327 325 324 325 324 323 323 324 323 320 317 315 312
313 323 331 339 343 347 349 351 354 356 360 4 5 4 0 359 357 357 358 356 356 359 358 354 352 346 340 338 336 331 326 324 323 325 324 322 321 323 322 321 318 316 312
296 307 316 321 322 327 334 338 340 340 344 348 351 352 351 351 351 349 346 345 346 349 350 348 346 344 342 340 337 335 331 326 325 326 324 323 324 324 323 323 319 316 315
284 290 301 307 308 313 321 329 331 331 330 333 336 339 342 345 344 341 337 336 337 339 340 340 340 339 337 337 336 334 334 329 327 326 325 325 325 324 323 322 322 321 318
274 280 287 294 299 302 307 315 320 323 323 323 326 329 331 333 336 335 332 330 329 332 333 333 333 333 332 331 331 330 329 328 327 327 327 326 326 324 322 321 321 321 320
268 273 279 286 292 294 298 303 307 313 314 316 318 320 322 325 327 328 327 324 323 323 325 327 327 328 329 330 330 328 327 326 325 325 326 326 325 324 322 321 320 319 319
262 268 273 279 284 288 290 292 296 301 304 308 311 314 313 315 316 317 320 321 322 323 322 322 321 322 324 326 327 326 324 323 324 324 325 325 324 323 322 321 319 318 317
259 262 267 272 276 281 282 284 287 292 295 301 306 308 308 307 304 305 311 316 318 319 321 320 321 322 323 324 325 324 323 321 321 321 321 322 323 322 320 319 318 317 315
255 257 262 265 270 276 279 282 285 289 292 296 301 304 306 306 305 303 304 308 310 312 315 318 320 322 322 323 323 321 321 319 318 318 318 319 319 320 318 317 316 314 314
253 254 259 264 265 268 274 276 281 284 288 290 295 299 302 303 304 302 303 305 306 308 310 315 318 319 319 319 319 319 319 318 317 317 317 316 316 316 316 315 315 314 313
256 254 256 260 261 263 267 271 277 281 285 286 289 293 295 298 300 300 303 304 305 305 306 309 311 316 317 317 317 316 316 316 315 315 315 316 315 313 313 313 313 313 312
257 255 254 255 258 260 263 268 273 278 281 284 286 290 292 293 294 297 298 299 300 302 303 305 308 311 312 315 315 315 315 315 314 313 313 314 316 315 314 315 315 314 313
255 254 255 256 259 261 262 266 270 275 278 281 284 287 287 288 290 292 295 296 295 297 298 301 304 307 309 310 311 313 313 314 313 312 312 313 313 314 313 313 314 314 311
255 255 257 258 261 262 262 263 266 271 274 279 283 283 285 285 287 288 290 290 291 293 294 297 299 302 305 306 307 308 310 311 311 310 311 312 313 313 312 312 313 313 312
255 256 257 258 260 261 263 264 266 270 274 277 281 282 282 281 282 285 286 286 287 291 293 293 296 299 301 303 304 305 307 308 308 308 309 309 309 310 310 310 311 311 309
253 255 257 258 258 259 263 265 267 270 273 276 277 279 279 279 280 282 284 284 285 288 292 294 294 294 297 300 302 304 305 305 305 306 306 307 307 308 308 309 310 309 308
252 254 255 257 259 260 264 266 267 269 271 273 276 277 278 278 278 280 281 282 283 286 289 292 293 293 295 298 300 301 302 303 304 304 305 305 305 305 306 307 308 308 307
254 253 255 257 259 261 263 265 267 268 269 270 273 273 274 278 279 278 278 282 282 284 288 291 293 293 294 296 297 299 300 301 301 301 301 302 303 304 304 304 305 306 306
254 254 254 256 258 260 262 264 265 266 266 267 270 272 273 275 277 278 277 280 282 283 285 288 290 292 293 295 297 297 297 298 300 299 299 300 301 303 303 302 304 305 306